THY12 KJFK-LTFM

Flight info

Callsign THY12
Flight time N/A
Altitude 34000
Route MERIT DCT HFD DCT PUT DCT ENE DCT QUBIS DCT AVUTI/M083F340 DCT 59N050W 60N040W 61N030W 61N020W DCT ATSIX/N0478F340 DCT AKIVO DCT ADASI DCT LAMRO DCT ARTEX DCT VAXIT DCT DOSUR DCT SUBIX DCT DESEN DCT BILNA DCT WESTE DCT TEGRI DCT XANEX L606 GASRU T390 RILEX
Aircraft A343/H-SDE2E3FGHIJ4J5M1RWXY/LB1D1

Departure

Time 2026-05-01 10:07
Airport John F. Kennedy International Airport (KJFK)

Arrival

Time N/A
Airport İstanbul Airport (LTFM)
Time Latitude Longitude Altitude Speed Heading
2026-05-01 09:33 40.64081 -73.79280 28 ft 0 kts 359°
2026-05-01 09:56 40.64077 -73.79280 28 ft 3 kts 355°
2026-05-01 09:56 40.64054 -73.79269 33 ft 4 kts 307°
2026-05-01 09:57 40.64044 -73.79239 16 ft 4 kts 276°
2026-05-01 09:57 40.64044 -73.79203 32 ft 4 kts 261°
2026-05-01 09:57 40.64051 -73.79171 28 ft 4 kts 238°
2026-05-01 09:57 40.64057 -73.79160 28 ft 0 kts 224°
2026-05-01 10:01 40.64056 -73.79161 28 ft 1 kts 224°
2026-05-01 10:01 40.64035 -73.79188 28 ft 5 kts 224°
2026-05-01 10:01 40.64008 -73.79222 28 ft 6 kts 224°
2026-05-01 10:02 40.63964 -73.79244 27 ft 6 kts 156°
2026-05-01 10:02 40.63933 -73.79197 28 ft 9 kts 123°
2026-05-01 10:02 40.63900 -73.79125 31 ft 13 kts 121°
2026-05-01 10:02 40.63828 -73.78967 28 ft 23 kts 120°
2026-05-01 10:03 40.63751 -73.78795 32 ft 21 kts 120°
2026-05-01 10:03 40.63676 -73.78630 32 ft 24 kts 120°
2026-05-01 10:03 40.63576 -73.78411 32 ft 26 kts 121°
2026-05-01 10:03 40.63487 -73.78211 29 ft 26 kts 121°
2026-05-01 10:04 40.63406 -73.78033 27 ft 21 kts 120°
2026-05-01 10:04 40.63334 -73.77866 30 ft 20 kts 119°
2026-05-01 10:04 40.63264 -73.77712 31 ft 20 kts 124°
2026-05-01 10:04 40.63198 -73.77564 33 ft 18 kts 120°
2026-05-01 10:05 40.63178 -73.77520 34 ft 4 kts 121°
2026-05-01 10:05 40.63148 -73.77493 33 ft 5 kts 171°
2026-05-01 10:05 40.63105 -73.77518 33 ft 11 kts 211°
2026-05-01 10:05 40.63016 -73.77592 33 ft 16 kts 221°
2026-05-01 10:06 40.63025 -73.77689 34 ft 9 kts 309°
2026-05-01 10:06 40.63087 -73.77811 32 ft 36 kts 302°
2026-05-01 10:06 40.63325 -73.78348 26 ft 98 kts 300°
2026-05-01 10:06 40.63756 -73.79288 30 ft 146 kts 299°
2026-05-01 10:07 40.64222 -73.80536 515 ft 150 kts 299°
2026-05-01 10:07 40.64695 -73.81735 1120 ft 155 kts 293°
2026-05-01 10:07 40.64936 -73.83316 979 ft 191 kts 289°
2026-05-01 10:07 40.65797 -73.84663 1166 ft 205 kts 335°
2026-05-01 10:08 40.68588 -73.83844 2228 ft 228 kts 35°
2026-05-01 10:08 40.69772 -73.82419 2860 ft 235 kts 42°
2026-05-01 10:08 40.70948 -73.80846 3376 ft 245 kts 42°
2026-05-01 10:09 40.72191 -73.79265 3956 ft 252 kts 39°
2026-05-01 10:09 40.73519 -73.77732 4518 ft 258 kts 36°
2026-05-01 10:09 40.74943 -73.76225 5090 ft 265 kts 34°
2026-05-01 10:09 40.75920 -73.75241 5501 ft 268 kts 33°